Вернуться в каталог

STARLINK-5750

АктивенСвязьVLEO
NORAD 55594·PAYLOAD·🇺🇸 United States

Запущен Feb 12, 2023 с Cape Canaveral Space Force Station

Loading…

Ближайшие Пролёты (ближайшие 24 часа)

TLE

СвежийSource: CelesTrak SupGP

Эпоха: Sep 15, 2026, 02:27 UTC

1 55594C 23020AB  26258.10256944 -.00026553  00000+0 -96184-3 0  2580
2 55594  43.0037  15.2436 0001499 262.3522 111.4758 15.27587845    13

Отслеживайте STARLINK-5750 в реальном времени с AllMySat

Download on the App Store